Weather History for KCDW - October, 2013

Change the Weather History Date:

Wednesday, October 30, 2013

  Actual Average Record
Temperature  
Mean Temperature 46 °F -  
Max Temperature 57 °F 60 °F 76 °F (1971)
Min Temperature 36 °F 34 °F 23 °F (1983)
Degree Days  
Heating Degree Days 18    
Moisture  
Dew Point 39 °F    
Average Humidity 78    
Maximum Humidity 93    
Minimum Humidity 62    
Precipitation  
Precipitation 0.00 in - - ()
Sea Level Pressure  
Sea Level Pressure 30.28 in    
Wind  
Wind Speed 0 mph (West)    
Max Wind Speed 4 mph    
Max Gust Speed -    
Visibility 8 miles    
Events Fog    
Averages and records for this station are not official NWS values.
T = Trace of Precipitation, MM = Missing Value Source: NWS Daily Summary

Daily Weather History Graph

Daily Weather History Graph

Search for Another Location

Airport or City:

Trip Planner

Search our weather history database for the weather conditions in past years. The results will help you decide how hot, cold, wet, or windy it might be!

Date:

Astronomy

Oct. 30, 2013 Rise Set
Actual Time 7:25 AM EDT 5:55 PM EDT
Civil Twilight 6:57 AM EDT 6:23 PM EDT
Nautical Twilight 6:24 AM EDT 6:55 PM EDT
Astronomical Twilight 5:52 AM EDT 7:27 PM EDT
Moon 3:10 AM EDT (10/30) 3:40 PM EDT (10/30)
Length of Visible Light 11h 26m
Length of Day
10h 29m
Waning Crescent, 17% of the Moon is Illuminated
Oct 30
Waning Crescent
Nov 3
New
Nov 10
First Quarter
Nov 17
Full
Nov 25
Last Quarter

Hourly Weather History & Observations

Time (EDT) Temp. Dew Point Humidity Pressure Visibility Wind Dir Wind Speed Gust Speed Precip Events Conditions
12:53 AM 36.0 °F 30.9 °F 82% 30.38 in 10.0 mi Calm Calm - N/A   Clear
1:53 AM 36.0 °F 32.0 °F 86% 30.36 in 10.0 mi Calm Calm - N/A   Clear
2:53 AM 37.0 °F 32.0 °F 82% 30.36 in 10.0 mi Calm Calm - N/A   Clear
3:53 AM 37.9 °F 32.0 °F 79% 30.35 in 10.0 mi Calm Calm - N/A   Partly Cloudy
4:53 AM 37.9 °F 33.1 °F 83% 30.33 in 10.0 mi Calm Calm - N/A   Scattered Clouds
5:53 AM 39.0 °F 33.1 °F 79% 30.33 in 10.0 mi Calm Calm - N/A   Mostly Cloudy
6:53 AM 39.9 °F 34.0 °F 79% 30.33 in 10.0 mi Calm Calm - N/A   Overcast
7:07 AM 39.2 °F 33.8 °F 81% 30.31 in 10.0 mi Calm Calm - N/A   Overcast
7:29 AM 39.2 °F 33.8 °F 81% 30.31 in 10.0 mi Calm Calm - N/A   Overcast
7:53 AM 39.9 °F 34.0 °F 79% 30.32 in 10.0 mi Calm Calm - N/A   Scattered Clouds
8:53 AM 43.0 °F 35.1 °F 74% 30.33 in 10.0 mi Calm Calm - N/A   Overcast
9:01 AM 42.8 °F 35.6 °F 76% 30.31 in 10.0 mi Calm Calm - N/A   Overcast
9:53 AM 45.0 °F 36.0 °F 71% 30.32 in 10.0 mi Calm Calm - N/A   Overcast
10:48 AM 46.4 °F 35.6 °F 66% 30.30 in 10.0 mi Calm Calm - N/A   Overcast
10:53 AM 46.9 °F 36.0 °F 66% 30.32 in 10.0 mi Calm Calm - N/A   Overcast
11:20 AM 48.2 °F 37.4 °F 66% 30.30 in 10.0 mi Calm Calm - N/A   Overcast
11:53 AM 50.0 °F 37.9 °F 63% 30.31 in 10.0 mi Calm Calm - N/A   Overcast
12:24 PM 51.8 °F 39.2 °F 62% 30.27 in 10.0 mi Calm Calm - N/A   Overcast
12:40 PM 51.8 °F 41.0 °F 67% 30.26 in 10.0 mi Calm Calm - N/A   Overcast
12:53 PM 52.0 °F 41.0 °F 66% 30.28 in 10.0 mi Calm Calm - N/A   Overcast
1:31 PM 53.6 °F 42.8 °F 67% 30.24 in 10.0 mi West 3.5 mph - N/A   Overcast
1:53 PM 54.0 °F 43.0 °F 66% 30.25 in 10.0 mi West 3.5 mph - N/A   Overcast
2:04 PM 55.4 °F 44.6 °F 67% 30.23 in 10.0 mi Variable 3.5 mph - N/A   Overcast
2:53 PM 57.0 °F 46.0 °F 67% 30.23 in 10.0 mi Variable 3.5 mph - N/A   Overcast
3:02 PM 57.2 °F 46.4 °F 67% 30.21 in 10.0 mi Calm Calm - N/A   Overcast
3:53 PM 57.0 °F 46.0 °F 67% 30.22 in 10.0 mi Calm Calm - N/A   Overcast
4:50 PM 57.2 °F 46.4 °F 67% 30.19 in 10.0 mi Calm Calm - N/A   Overcast
4:53 PM 57.0 °F 46.9 °F 69% 30.21 in 10.0 mi WSW 3.5 mph - N/A   Overcast
5:53 PM 55.0 °F 46.0 °F 72% 30.22 in 10.0 mi Calm Calm - N/A   Overcast
6:53 PM 51.1 °F 45.0 °F 80% 30.23 in 10.0 mi Calm Calm - N/A   Partly Cloudy
7:53 PM 48.0 °F 44.1 °F 86% 30.25 in 10.0 mi Calm Calm - N/A   Clear
8:53 PM 46.9 °F 44.1 °F 90% 30.26 in 7.0 mi Calm Calm - N/A   Mostly Cloudy
9:49 PM 44.6 °F 42.8 °F 93% 30.24 in 5.0 mi Calm Calm - N/A   Partly Cloudy
9:53 PM 45.0 °F 42.1 °F 90% 30.26 in 6.0 mi Calm Calm - N/A   Partly Cloudy
10:53 PM 44.1 °F 42.1 °F 93% 30.27 in 5.0 mi Calm Calm - N/A   Partly Cloudy
11:04 PM 42.8 °F 41.0 °F 93% 30.24 in 1.2 mi Calm Calm - N/A   Scattered Clouds
11:11 PM 42.8 °F 41.0 °F 93% 30.24 in 0.5 mi Calm Calm - N/A Fog Fog
11:15 PM 42.8 °F 41.0 °F 93% 30.24 in 1.5 mi Calm Calm - N/A   Partly Cloudy
11:17 PM 42.8 °F 41.0 °F 93% 30.24 in 4.0 mi Calm Calm - N/A   Partly Cloudy
11:38 PM 42.8 °F 41.0 °F 93% 30.24 in 2.0 mi Calm Calm - N/A   Clear
11:53 PM 42.1 °F 39.9 °F 92% 30.27 in 5.0 mi Calm Calm - N/A   Clear